Kbely Air Base

Jump to: basic info | weather | frequencies | runways | comments

Related pages: nearby airports | nearby navaids | notams | map

Basic information (top)

Codes: LKKB
Location: lon 50.121399, lat 14.543600, elev 939 ft / 286 m msl
Status: medium_airport

Weather (top)

Current conditions (rec'd 2014/10/23 16:00Z):

LKKB 231600Z 34008KT 310V010 8000 BKN011 BKN017 09/07 Q1021 NOSIG

Airport forecast (rec'd 2014/10/22 00:00Z):

TAF LKKB 222300Z 2300/2324 32012KT 9999 RA SCT008 OVC015 PROB40 
      TEMPO 2302/2315 35014G24KT 
      BECMG 2308/2310 NSW BKN030 
      BECMG 2316/2318 STC040

Frequencies (top)

Verify before use: may be inaccurate or out of date.

APP: 124.675 MHz (APP)
GCA: 123.3 MHz (PRECISION)
TWR: 120.875 MHz (TWR)

Runways (top)

06/24: 6,562 x 148 ft (2,000 x 45 m) — paved — lighted

Latest comments (top)

No comments yet for Kbely Air Base

More... (top)

See also NOTAMs and nearby airports and navaids, or visit the Kbely Air Base page at the main OurAirports website..